{"data":{"norad_id":64799,"intl_designator":"2025-150K","name":"STARLINK-34662","alt_names":[],"object_type":"PAYLOAD","status":"ACTIVE","operator":null,"country":"US","launch_date":"2025-07-16","launch_site_code":"AFWTR","launch_vehicle":null,"mission":null,"orbit_class":"UNKNOWN","rcs_meters":null,"size_class":null,"mass_kg":null,"dimensions":null,"purposes":["comms"],"wikipedia_slug":null,"has_3d_model":false,"image_url":null,"decayed_at":null,"tle_current":{"epoch":"2026-05-25T03:33:30.011328Z","epoch_age_seconds":52429,"freshness":"FRESH","line1":"1 64799U 25150K   26145.14826402  .00004488  00000+0  38349-3 0  9996","line2":"2 64799  70.0003 301.5143 0002471 266.1867  93.9010 14.98348690 47975","mean_motion":14.9834869,"eccentricity":0.0002471,"inclination_deg":70.0003,"raan_deg":301.5143,"arg_perigee_deg":266.1867,"mean_anomaly_deg":93.901,"bstar":0.00038349,"rev_number":4797,"period_min":96.105800312743,"perigee_km":570.28071588016,"apogee_km":573.71547264374,"semimajor_km":6950.135094262,"source":"CELESTRAK","updated_at":"2026-05-25T13:38:20.565024Z"}}}